,,PA_Meas_PMT16A,,PR_Meas_QMR101_102,,RH_Meas_QMH101,,SR_Meas_QMS101,,TA_Meas_QMH101,,GenWind,,GenWind,
time,status,PA,status,PR,status,RH,status,SR,status,TA,status,DirAvg,status,SpdAvg,
2012-09-07, 00:00:04,VALID,918.792,VALID,0,VALID,97.473,VALID,0.107441,VALID,18.7488,VALID,107,VALID,0,
2012-09-07, 00:01:04,VALID,918.762,VALID,0,VALID,97.4654,VALID,0,VALID,18.7503,VALID,107,VALID,0,
2012-09-07, 00:02:04,VALID,918.775,VALID,0,VALID,97.4501,VALID,0,VALID,18.7503,VALID,107,VALID,0,
2012-09-07, 00:03:04,VALID,918.769,VALID,0,VALID,97.4577,VALID,0,VALID,18.7503,VALID,107,VALID,0,
2012-09-07, 00:04:04,VALID,918.772,VALID,0,VALID,97.4577,VALID,0,VALID,18.7308,VALID,106,VALID,0,
2012-09-07, 00:05:04,VALID,918.77,VALID,0,VALID,97.4654,VALID,0,VALID,18.7308,VALID,107,VALID,0,
2012-09-07, 00:06:04,VALID,918.771,VALID,0,VALID,97.4501,VALID,0,VALID,18.7113,VALID,106,VALID,0,
2012-09-07, 00:07:04,VALID,918.741,VALID,0,VALID,97.4501,VALID,0,VALID,18.6918,VALID,106,VALID,0,
2012-09-07, 00:08:04,VALID,918.748,VALID,0,VALID,97.4577,VALID,0,VALID,18.7113,VALID,106,VALID,0,
2012-09-07, 00:09:04,VALID,918.768,VALID,0,VALID,97.4577,VALID,0,VALID,18.6918,VALID,106,VALID,0,
2012-09-07, 00:10:04,VALID,918.766,VALID,0,VALID,97.4425,VALID,0,VALID,18.6918,VALID,106,VALID,0,
2012-09-07, 00:11:04,VALID,918.752,VALID,0,VALID,97.4577,VALID,0,VALID,18.7308,VALID,106,VALID,0,
2012-09-07, 00:12:04,VALID,918.795,VALID,0,VALID,97.4577,VALID,0,VALID,18.7113,VALID,106,VALID,0,
2012-09-07, 00:13:04,VALID,918.772,VALID,0,VALID,97.4654,VALID,0,VALID,18.7308,VALID,106,VALID,0,
2012-09-07, 00:14:04,VALID,918.783,VALID,0,VALID,97.4654,VALID,0,VALID,18.7503,VALID,107,VALID,0,
2012-09-07, 00:15:04,VALID,918.774,VALID,0,VALID,97.4501,VALID,0,VALID,18.7697,VALID,107,VALID,0,
2012-09-07, 00:16:04,VALID,918.77,VALID,0,VALID,97.4654,VALID,0,VALID,18.7697,VALID,107,VALID,0,
2012-09-07, 00:17:04,VALID,918.796,VALID,0,VALID,97.4806,VALID,0,VALID,18.7503,VALID,107,VALID,0,
2012-09-07, 00:18:04,VALID,918.778,VALID,0,VALID,97.4501,VALID,0,VALID,18.7503,VALID,168,VALID,0,
2012-09-07, 00:19:04,VALID,918.769,VALID,0,VALID,97.473,VALID,0,VALID,18.7697,VALID,168,VALID,0,
2012-09-07, 00:20:04,VALID,918.79,VALID,0,VALID,97.473,VALID,0,VALID,18.7697,VALID,168,VALID,0,
2012-09-07, 00:21:04,VALID,918.78,VALID,0,VALID,97.4577,VALID,0.107441,VALID,18.7697,VALID,168,VALID,0,
2012-09-07, 00:22:04,VALID,918.752,VALID,0,VALID,97.4654,VALID,0,VALID,18.7697,VALID,168,VALID,0,
2012-09-07, 00:23:04,VALID,918.738,VALID,0,VALID,97.4577,VALID,0.107441,VALID,18.7308,VALID,168,VALID,0,
2012-09-07, 00:24:04,VALID,918.718,VALID,0,VALID,97.4806,VALID,0.107441,VALID,18.7308,VALID,168,VALID,0,
2012-09-07, 00:25:04,VALID,918.682,VALID,0,VALID,97.4577,VALID,0,VALID,18.6918,VALID,167,VALID,0,
2012-09-07, 00:26:04,VALID,918.69,VALID,0,VALID,97.473,VALID,0,VALID,18.7113,VALID,167,VALID,0,
2012-09-07, 00:27:04,VALID,918.683,VALID,0,VALID,97.473,VALID,0,VALID,18.7113,VALID,167,VALID,0,
2012-09-07, 00:28:04,VALID,918.647,VALID,0,VALID,97.4654,VALID,0,VALID,18.6708,VALID,167,VALID,0,
2012-09-07, 00:29:04,VALID,918.654,VALID,0,VALID,97.4806,VALID,0,VALID,18.6918,VALID,167,VALID,0,
2012-09-07, 00:30:04,VALID,918.638,VALID,0,VALID,97.4577,VALID,0,VALID,18.6723,VALID,167,VALID,0,
2012-09-07, 00:31:04,VALID,918.641,VALID,0,VALID,97.4882,VALID,0,VALID,18.6723,VALID,167,VALID,0,
2012-09-07, 00:32:04,VALID,918.64,VALID,0,VALID,97.4577,VALID,0,VALID,18.6918,VALID,167,VALID,0,
2012-09-07, 00:33:04,VALID,918.646,VALID,0,VALID,97.4577,VALID,0,VALID,18.6723,VALID,167,VALID,0,
2012-09-07, 00:34:04,VALID,918.619,VALID,0,VALID,97.4654,VALID,0,VALID,18.6918,VALID,167,VALID,0,
2012-09-07, 00:35:04,VALID,918.649,VALID,0,VALID,97.4654,VALID,0,VALID,18.7113,VALID,167,VALID,0,
2012-09-07, 00:36:04,VALID,918.65,VALID,0,VALID,97.4654,VALID,0,VALID,18.7113,VALID,167,VALID,0,
2012-09-07, 00:37:04,VALID,918.641,VALID,0,VALID,97.4654,VALID,0.107441,VALID,18.6918,VALID,167,VALID,0,
2012-09-07, 00:38:04,VALID,918.627,VALID,0,VALID,97.473,VALID,0,VALID,18.6918,VALID,167,VALID,0,
2012-09-07, 00:39:04,VALID,918.607,VALID,0,VALID,97.473,VALID,0,VALID,18.6918,VALID,167,VALID,0,
2012-09-07, 00:40:04,VALID,918.6,VALID,0,VALID,97.473,VALID,0.107441,VALID,18.7113,VALID,167,VALID,0,
2012-09-07, 00:41:04,VALID,918.552,VALID,0,VALID,97.473,VALID,0.107441,VALID,18.6723,VALID,167,VALID,0,
2012-09-07, 00:42:04,VALID,918.549,VALID,0,VALID,97.4501,VALID,0,VALID,18.6528,VALID,167,VALID,0,
2012-09-07, 00:43:04,VALID,918.508,VALID,0,VALID,97.4577,VALID,0,VALID,18.6528,VALID,167,VALID,0,
2012-09-07, 00:44:04,VALID,918.481,VALID,0,VALID,97.4654,VALID,0,VALID,18.6528,VALID,167,VALID,0,
2012-09-07, 00:45:04,VALID,918.479,VALID,0,VALID,97.4654,VALID,0,VALID,18.6528,VALID,167,VALID,0,
2012-09-07, 00:46:04,VALID,918.438,VALID,0,VALID,97.4577,VALID,0.107441,VALID,18.6319,VALID,167,VALID,0,
2012-09-07, 00:47:04,VALID,918.422,VALID,0,VALID,97.4654,VALID,0,VALID,18.6528,VALID,167,VALID,0,
2012-09-07, 00:48:04,VALID,918.389,VALID,0,VALID,97.4577,VALID,0,VALID,18.6333,VALID,167,VALID,0,
2012-09-07, 00:49:04,VALID,918.388,VALID,0,VALID,97.4654,VALID,0,VALID,18.6333,VALID,167,VALID,0,
2012-09-07, 00:50:04,VALID,918.364,VALID,0,VALID,97.4654,VALID,0.107441,VALID,18.5929,VALID,166,VALID,0,
2012-09-07, 00:51:04,VALID,918.368,VALID,0,VALID,97.4501,VALID,0,VALID,18.5553,VALID,139,VALID,0,
2012-09-07, 00:52:04,VALID,918.352,VALID,0,VALID,97.473,VALID,0,VALID,18.5748,VALID,122,VALID,0,
2012-09-07, 00:53:04,VALID,918.346,VALID,0,VALID,97.4959,VALID,0,VALID,18.5553,VALID,124,VALID,0,
2012-09-07, 00:54:04,VALID,918.318,VALID,0,VALID,97.4882,VALID,0,VALID,18.5553,VALID,131,VALID,0,
2012-09-07, 00:55:04,VALID,918.289,VALID,0,VALID,97.4882,VALID,0,VALID,18.5358,VALID,127,VALID,0,
2012-09-07, 00:56:04,VALID,918.244,VALID,0,VALID,97.4882,VALID,0,VALID,18.5358,VALID,148,VALID,0,
2012-09-07, 00:57:04,VALID,918.231,VALID,0,VALID,97.5111,VALID,0,VALID,18.5539,VALID,121,VALID,0,
2012-09-07, 00:58:04,VALID,918.188,VALID,0,VALID,97.4959,VALID,0,VALID,18.5748,VALID,132,VALID,0,
2012-09-07, 00:59:04,VALID,918.168,VALID,0,VALID,97.5187,VALID,0,VALID,18.5943,VALID,138,VALID,0,
2012-09-07, 01:00:04,VALID,918.146,VALID,0,VALID,97.5111,VALID,0,VALID,18.6138,VALID,139,VALID,0,
2012-09-07, 01:01:04,VALID,918.167,VALID,0,VALID,97.5264,VALID,0,VALID,18.6333,VALID,133,VALID,0,
2012-09-07, 01:02:04,VALID,918.12,VALID,0,VALID,97.5416,VALID,0,VALID,18.6528,VALID,150,VALID,0,
2012-09-07, 01:03:04,VALID,918.098,VALID,0,VALID,97.5187,VALID,0,VALID,18.6528,VALID,160,VALID,0,
2012-09-07, 01:04:04,VALID,918.078,VALID,0,VALID,97.534,VALID,0,VALID,18.6528,VALID,138,VALID,0,
2012-09-07, 01:05:04,VALID,918.055,VALID,0,VALID,97.5416,VALID,0.107441,VALID,18.6723,VALID,142,VALID,0,
2012-09-07, 01:06:04,VALID,918.054,VALID,0,VALID,97.5416,VALID,0,VALID,18.6723,VALID,144,VALID,0,
2012-09-07, 01:07:04,VALID,918.07,VALID,0,VALID,97.534,VALID,0,VALID,18.6723,VALID,134,VALID,0,
2012-09-07, 01:08:04,VALID,918.028,VALID,0,VALID,97.534,VALID,0,VALID,18.6723,VALID,145,VALID,0,
2012-09-07, 01:09:04,VALID,918.042,VALID,0,VALID,97.5264,VALID,0,VALID,18.6723,VALID,153,VALID,0,
2012-09-07, 01:10:04,VALID,918.006,VALID,0,VALID,97.5569,VALID,0,VALID,18.6918,VALID,155,VALID,0,
2012-09-07, 01:11:04,VALID,917.978,VALID,0,VALID,97.5569,VALID,0.107441,VALID,18.6708,VALID,153,VALID,0,
2012-09-07, 01:12:04,VALID,917.973,VALID,0,VALID,97.5416,VALID,0,VALID,18.7127,VALID,158,VALID,0,
2012-09-07, 01:13:04,VALID,917.947,VALID,0,VALID,97.5492,VALID,0,VALID,18.6918,VALID,162,VALID,0,
2012-09-07, 01:14:04,VALID,917.928,VALID,0,VALID,97.5492,VALID,0,VALID,18.7113,VALID,155,VALID,0,
2012-09-07, 01:15:04,VALID,917.899,VALID,0,VALID,97.5416,VALID,0,VALID,18.7113,VALID,146,VALID,0,
2012-09-07, 01:16:04,VALID,917.893,VALID,0,VALID,97.5569,VALID,0,VALID,18.7113,VALID,165,VALID,0,
2012-09-07, 01:17:04,VALID,917.855,VALID,0,VALID,97.5645,VALID,0,VALID,18.7113,VALID,162,VALID,0,
2012-09-07, 01:18:04,VALID,917.853,VALID,0,VALID,97.5569,VALID,0,VALID,18.7113,VALID,151,VALID,0,
2012-09-07, 01:19:04,VALID,917.816,VALID,0,VALID,97.5645,VALID,0,VALID,18.7113,VALID,139,VALID,0,
2012-09-07, 01:20:04,VALID,917.792,VALID,0,VALID,97.5645,VALID,0,VALID,18.7308,VALID,136,VALID,0,
2012-09-07, 01:21:04,VALID,917.811,VALID,0,VALID,97.5645,VALID,0,VALID,18.7113,VALID,139,VALID,0.0195313,
2012-09-07, 01:22:04,VALID,917.783,VALID,0,VALID,97.5569,VALID,0,VALID,18.7113,VALID,136,VALID,0.483203,
2012-09-07, 01:23:04,VALID,917.803,VALID,0,VALID,97.5569,VALID,0,VALID,18.7308,VALID,161,VALID,0,
2012-09-07, 01:24:04,VALID,917.752,VALID,0,VALID,97.5645,VALID,0,VALID,18.7503,VALID,133,VALID,0,
2012-09-07, 01:25:04,VALID,917.783,VALID,0,VALID,97.5797,VALID,0,VALID,18.7293,VALID,139,VALID,0.0191406,
2012-09-07, 01:26:04,VALID,917.706,VALID,0,VALID,97.5797,VALID,0,VALID,18.7503,VALID,148,VALID,0,
2012-09-07, 01:27:04,VALID,917.7,VALID,0,VALID,97.5645,VALID,0.107441,VALID,18.7503,VALID,138,VALID,0.00351562,
2012-09-07, 01:28:04,VALID,917.672,VALID,0,VALID,97.5645,VALID,0,VALID,18.7503,VALID,162,VALID,0,
2012-09-07, 01:29:04,VALID,917.637,VALID,0,VALID,97.5645,VALID,0,VALID,18.7503,VALID,139,VALID,0.00351562,
2012-09-07, 01:30:04,VALID,917.626,VALID,0,VALID,97.5569,VALID,0,VALID,18.7697,VALID,114,VALID,0.00117188,
2012-09-07, 01:31:04,VALID,917.634,VALID,0,VALID,97.5492,VALID,0,VALID,18.7697,VALID,126,VALID,0,
2012-09-07, 01:32:04,VALID,917.633,VALID,0,VALID,97.5645,VALID,0,VALID,18.7697,VALID,127,VALID,0,
2012-09-07, 01:33:04,VALID,917.636,VALID,0,VALID,97.5416,VALID,0,VALID,18.8087,VALID,181,VALID,0,
2012-09-07, 01:34:04,VALID,917.65,VALID,0,VALID,97.5492,VALID,0,VALID,18.8282,VALID,150,VALID,0,
2012-09-07, 01:35:04,VALID,917.672,VALID,0,VALID,97.5264,VALID,0,VALID,18.8477,VALID,169,VALID,0,
2012-09-07, 01:36:04,VALID,917.685,VALID,0,VALID,97.5416,VALID,0,VALID,18.8477,VALID,164,VALID,0,
2012-09-07, 01:37:04,VALID,917.676,VALID,0,VALID,97.5187,VALID,0,VALID,18.8672,VALID,181,VALID,0,
2012-09-07, 01:38:04,VALID,917.694,VALID,0,VALID,97.5187,VALID,0,VALID,18.8672,VALID,134,VALID,0,
2012-09-07, 01:39:04,VALID,917.676,VALID,0,VALID,97.5264,VALID,0,VALID,18.8672,VALID,160,VALID,0,
2012-09-07, 01:40:04,VALID,917.682,VALID,0,VALID,97.4959,VALID,0,VALID,18.8672,VALID,158,VALID,0,
2012-09-07, 01:41:04,VALID,917.68,VALID,0,VALID,97.5035,VALID,0,VALID,18.8672,VALID,164,VALID,0,
2012-09-07, 01:42:04,VALID,917.705,VALID,0,VALID,97.4806,VALID,0,VALID,18.8672,VALID,152,VALID,0,
2012-09-07, 01:43:04,VALID,917.721,VALID,0,VALID,97.4654,VALID,0,VALID,18.8867,VALID,158,VALID,0,
2012-09-07, 01:44:04,VALID,917.747,VALID,0,VALID,97.4654,VALID,0,VALID,18.8867,VALID,157,VALID,0,
2012-09-07, 01:45:04,VALID,917.759,VALID,0,VALID,97.4577,VALID,0,VALID,18.8867,VALID,164,VALID,0,
2012-09-07, 01:46:04,VALID,917.777,VALID,0,VALID,97.4501,VALID,0,VALID,18.9062,VALID,141,VALID,0,
2012-09-07, 01:47:04,VALID,917.779,VALID,0,VALID,97.4425,VALID,0,VALID,18.9062,VALID,166,VALID,0,
2012-09-07, 01:48:04,VALID,917.775,VALID,0,VALID,97.4196,VALID,0,VALID,18.9257,VALID,160,VALID,0,
2012-09-07, 01:49:04,VALID,917.769,VALID,0,VALID,97.4273,VALID,0,VALID,18.9257,VALID,161,VALID,0,
2012-09-07, 01:50:04,VALID,917.776,VALID,0,VALID,97.3891,VALID,0,VALID,18.9257,VALID,162,VALID,0,
2012-09-07, 01:51:04,VALID,917.811,VALID,0,VALID,97.3968,VALID,0,VALID,18.9257,VALID,161,VALID,0,
2012-09-07, 01:52:04,VALID,917.822,VALID,0,VALID,97.3586,VALID,0,VALID,18.9062,VALID,135,VALID,0,
2012-09-07, 01:53:04,VALID,917.857,VALID,0,VALID,97.3281,VALID,0,VALID,18.9062,VALID,178,VALID,0,
2012-09-07, 01:54:04,VALID,917.858,VALID,0,VALID,97.3281,VALID,0,VALID,18.9062,VALID,141,VALID,0,
2012-09-07, 01:55:04,VALID,917.867,VALID,0,VALID,97.3205,VALID,0,VALID,18.9257,VALID,159,VALID,0,
2012-09-07, 01:56:04,VALID,917.905,VALID,0,VALID,97.2824,VALID,0,VALID,18.9467,VALID,161,VALID,0,
2012-09-07, 01:57:04,VALID,917.894,VALID,0,VALID,97.2595,VALID,0,VALID,18.9062,VALID,161,VALID,0,
2012-09-07, 01:58:04,VALID,917.901,VALID,0,VALID,97.2519,VALID,0.107441,VALID,18.9452,VALID,145,VALID,0,
2012-09-07, 01:59:04,VALID,917.896,VALID,0,VALID,97.2214,VALID,0,VALID,18.9452,VALID,148,VALID,0,
2012-09-07, 02:00:04,VALID,917.931,VALID,0,VALID,97.1986,VALID,0,VALID,18.9647,VALID,167,VALID,0,
2012-09-07, 02:01:04,VALID,917.947,VALID,0,VALID,97.1833,VALID,0,VALID,18.9647,VALID,167,VALID,0,
2012-09-07, 02:02:04,VALID,917.945,VALID,0,VALID,97.1604,VALID,0,VALID,18.9452,VALID,167,VALID,0,
2012-09-07, 02:03:04,VALID,917.918,VALID,0,VALID,97.1299,VALID,0,VALID,18.9647,VALID,167,VALID,0,
2012-09-07, 02:04:04,VALID,917.975,VALID,0,VALID,97.0842,VALID,0,VALID,18.9452,VALID,126,VALID,0,
2012-09-07, 02:05:04,VALID,917.951,VALID,0,VALID,97.0613,VALID,0,VALID,18.9452,VALID,131,VALID,0,
2012-09-07, 02:06:04,VALID,917.956,VALID,0,VALID,97.0385,VALID,0,VALID,18.9062,VALID,135,VALID,0,
2012-09-07, 02:07:04,VALID,917.948,VALID,0,VALID,96.9927,VALID,0,VALID,18.9062,VALID,136,VALID,0,
2012-09-07, 02:08:04,VALID,918.005,VALID,0,VALID,96.9622,VALID,0,VALID,18.8867,VALID,170,VALID,0,
2012-09-07, 02:09:04,VALID,918.023,VALID,0,VALID,96.9394,VALID,0,VALID,18.9062,VALID,176,VALID,0,
2012-09-07, 02:10:04,VALID,918.056,VALID,0,VALID,96.9012,VALID,0,VALID,18.9062,VALID,190,VALID,0,
2012-09-07, 02:11:04,VALID,918.088,VALID,0,VALID,96.8707,VALID,0,VALID,18.9467,VALID,190,VALID,0,
2012-09-07, 02:12:04,VALID,918.078,VALID,0,VALID,96.8098,VALID,0,VALID,18.9257,VALID,166,VALID,0,
2012-09-07, 02:13:04,VALID,918.098,VALID,0,VALID,96.7793,VALID,0,VALID,18.9062,VALID,157,VALID,0,
2012-09-07, 02:14:04,VALID,918.105,VALID,0,VALID,96.7488,VALID,0,VALID,18.9647,VALID,158,VALID,0,
2012-09-07, 02:15:04,VALID,918.084,VALID,0,VALID,96.6954,VALID,0.107441,VALID,18.9647,VALID,168,VALID,0,
2012-09-07, 02:16:04,VALID,918.099,VALID,0,VALID,96.6039,VALID,0,VALID,18.9452,VALID,144,VALID,0,
2012-09-07, 02:17:04,VALID,918.115,VALID,0,VALID,96.5048,VALID,0,VALID,18.9257,VALID,125,VALID,0,
2012-09-07, 02:18:04,VALID,918.148,VALID,0,VALID,96.4743,VALID,0,VALID,18.9257,VALID,122,VALID,0,
2012-09-07, 02:19:04,VALID,918.122,VALID,0,VALID,96.3524,VALID,0.107441,VALID,18.9048,VALID,115,VALID,0,
2012-09-07, 02:20:04,VALID,918.132,VALID,0,VALID,96.2075,VALID,0,VALID,18.9062,VALID,115,VALID,0,
2012-09-07, 02:21:04,VALID,918.108,VALID,0,VALID,96.1618,VALID,0,VALID,18.8477,VALID,115,VALID,0,
2012-09-07, 02:22:04,VALID,918.101,VALID,0,VALID,96.1923,VALID,0,VALID,18.8282,VALID,104,VALID,0,
2012-09-07, 02:23:04,VALID,918.105,VALID,0,VALID,96.177,VALID,0,VALID,18.8087,VALID,106,VALID,0,
2012-09-07, 02:24:04,VALID,918.059,VALID,0,VALID,96.0703,VALID,0,VALID,18.7892,VALID,107,VALID,0,
2012-09-07, 02:25:04,VALID,918.061,VALID,0,VALID,95.9864,VALID,0,VALID,18.7308,VALID,94,VALID,0,
2012-09-07, 02:26:04,VALID,918.018,VALID,0,VALID,96.0322,VALID,0,VALID,18.6918,VALID,88,VALID,0,
2012-09-07, 02:27:04,VALID,917.991,VALID,0,VALID,96.0627,VALID,0,VALID,18.6918,VALID,88,VALID,0,
2012-09-07, 02:28:04,VALID,918.003,VALID,0,VALID,96.0703,VALID,0,VALID,18.6528,VALID,83,VALID,0,
2012-09-07, 02:29:04,VALID,918.002,VALID,0,VALID,96.116,VALID,0,VALID,18.6138,VALID,80,VALID,0,
2012-09-07, 02:30:04,VALID,917.999,VALID,0,VALID,96.1541,VALID,0,VALID,18.5748,VALID,80,VALID,0,
2012-09-07, 02:31:04,VALID,918.013,VALID,0,VALID,96.2456,VALID,0,VALID,18.5553,VALID,80,VALID,0,
2012-09-07, 02:32:04,VALID,918.029,VALID,0,VALID,96.36,VALID,0,VALID,18.5358,VALID,80,VALID,0,
2012-09-07, 02:33:04,VALID,918.011,VALID,0,VALID,96.3752,VALID,0,VALID,18.4968,VALID,80,VALID,0,
2012-09-07, 02:34:04,VALID,917.986,VALID,0,VALID,96.4057,VALID,0,VALID,18.4773,VALID,80,VALID,0,
2012-09-07, 02:35:04,VALID,917.987,VALID,0,VALID,96.4972,VALID,0.107441,VALID,18.4578,VALID,82,VALID,0,
2012-09-07, 02:36:04,VALID,917.986,VALID,0,VALID,96.6573,VALID,0,VALID,18.4773,VALID,90,VALID,0,
2012-09-07, 02:37:04,VALID,917.99,VALID,0,VALID,96.6878,VALID,0,VALID,18.4968,VALID,95,VALID,0,
2012-09-07, 02:38:04,VALID,917.996,VALID,0,VALID,96.6725,VALID,0,VALID,18.4968,VALID,109,VALID,0,
2012-09-07, 02:39:04,VALID,917.958,VALID,0,VALID,96.7335,VALID,0,VALID,18.4968,VALID,106,VALID,0,
2012-09-07, 02:40:04,VALID,917.915,VALID,0,VALID,96.7183,VALID,0,VALID,18.4968,VALID,118,VALID,0,
2012-09-07, 02:41:04,VALID,917.962,VALID,0,VALID,96.7335,VALID,0,VALID,18.4773,VALID,118,VALID,0,
2012-09-07, 02:42:04,VALID,917.946,VALID,0,VALID,96.7564,VALID,0,VALID,18.4773,VALID,118,VALID,0,
2012-09-07, 02:43:04,VALID,917.905,VALID,0,VALID,96.8174,VALID,0,VALID,18.4773,VALID,118,VALID,0,
2012-09-07, 02:44:04,VALID,917.907,VALID,0,VALID,96.8174,VALID,0,VALID,18.4773,VALID,118,VALID,0,
2012-09-07, 02:45:04,VALID,917.924,VALID,0,VALID,96.8174,VALID,0,VALID,18.4592,VALID,118,VALID,0,
2012-09-07, 02:46:04,VALID,917.898,VALID,0,VALID,96.8403,VALID,0,VALID,18.4578,VALID,118,VALID,0,
2012-09-07, 02:47:04,VALID,917.867,VALID,0,VALID,96.8479,VALID,0,VALID,18.4383,VALID,118,VALID,0,
2012-09-07, 02:48:04,VALID,917.878,VALID,0,VALID,96.8631,VALID,0,VALID,18.4188,VALID,117,VALID,0,
2012-09-07, 02:49:04,VALID,917.88,VALID,0,VALID,96.8555,VALID,0.107441,VALID,18.4188,VALID,97,VALID,0,
2012-09-07, 02:50:04,VALID,917.853,VALID,0,VALID,96.8555,VALID,0.107441,VALID,18.4188,VALID,98,VALID,0,
2012-09-07, 02:51:04,VALID,917.872,VALID,0,VALID,96.9165,VALID,0,VALID,18.3993,VALID,105,VALID,0,
2012-09-07, 02:52:04,VALID,917.816,VALID,0,VALID,96.886,VALID,0,VALID,18.3798,VALID,105,VALID,0,
2012-09-07, 02:53:04,VALID,917.797,VALID,0,VALID,96.9012,VALID,0,VALID,18.3798,VALID,105,VALID,0,
2012-09-07, 02:54:04,VALID,917.775,VALID,0,VALID,96.8936,VALID,0,VALID,18.4202,VALID,105,VALID,0,
2012-09-07, 02:55:04,VALID,917.76,VALID,0,VALID,96.9012,VALID,0.107441,VALID,18.3798,VALID,105,VALID,0,
2012-09-07, 02:56:04,VALID,917.718,VALID,0,VALID,96.8936,VALID,0,VALID,18.3812,VALID,105,VALID,0,
2012-09-07, 02:57:04,VALID,917.736,VALID,0,VALID,96.8784,VALID,0,VALID,18.3798,VALID,105,VALID,0,
2012-09-07, 02:58:04,VALID,917.723,VALID,0,VALID,96.8631,VALID,0,VALID,18.3798,VALID,115,VALID,0,
2012-09-07, 02:59:04,VALID,917.704,VALID,0,VALID,96.8555,VALID,0,VALID,18.3993,VALID,115,VALID,0,
2012-09-07, 03:00:04,VALID,917.704,VALID,0,VALID,96.825,VALID,0,VALID,18.3993,VALID,115,VALID,0,
2012-09-07, 03:01:04,VALID,917.694,VALID,0,VALID,96.825,VALID,0,VALID,18.3993,VALID,115,VALID,0,
2012-09-07, 03:02:04,VALID,917.678,VALID,0,VALID,96.8479,VALID,0,VALID,18.4007,VALID,115,VALID,0,
2012-09-07, 03:03:04,VALID,917.665,VALID,0,VALID,96.8326,VALID,0,VALID,18.3603,VALID,115,VALID,0,
2012-09-07, 03:04:04,VALID,917.675,VALID,0,VALID,96.8631,VALID,0,VALID,18.3408,VALID,115,VALID,0,
2012-09-07, 03:05:04,VALID,917.659,VALID,0,VALID,96.8784,VALID,0,VALID,18.3408,VALID,115,VALID,0,
2012-09-07, 03:06:04,VALID,917.672,VALID,0,VALID,96.8707,VALID,0,VALID,18.3408,VALID,115,VALID,0,
2012-09-07, 03:07:04,VALID,917.651,VALID,0,VALID,96.9089,VALID,0,VALID,18.3408,VALID,115,VALID,0,
2012-09-07, 03:08:04,VALID,917.647,VALID,0,VALID,96.9165,VALID,0,VALID,18.3617,VALID,115,VALID,0,
2012-09-07, 03:09:04,VALID,917.635,VALID,0,VALID,96.947,VALID,0,VALID,18.3617,VALID,115,VALID,0,
2012-09-07, 03:10:04,VALID,917.62,VALID,0,VALID,96.9394,VALID,0,VALID,18.3603,VALID,115,VALID,0,
2012-09-07, 03:11:04,VALID,917.621,VALID,0,VALID,96.947,VALID,0,VALID,18.3603,VALID,115,VALID,0,
2012-09-07, 03:12:04,VALID,917.587,VALID,0,VALID,96.9698,VALID,0,VALID,18.3603,VALID,115,VALID,0,
2012-09-07, 03:13:04,VALID,917.593,VALID,0,VALID,96.9622,VALID,0,VALID,18.3603,VALID,115,VALID,0,
2012-09-07, 03:14:04,VALID,917.579,VALID,0,VALID,96.9775,VALID,0,VALID,18.3603,VALID,115,VALID,0,
2012-09-07, 03:15:04,VALID,917.581,VALID,0,VALID,96.9927,VALID,0,VALID,18.3603,VALID,115,VALID,0,
2012-09-07, 03:16:04,VALID,917.533,VALID,0,VALID,96.9927,VALID,0,VALID,18.3603,VALID,115,VALID,0,
2012-09-07, 03:17:04,VALID,917.529,VALID,0,VALID,97.008,VALID,0,VALID,18.3408,VALID,115,VALID,0,
2012-09-07, 03:18:04,VALID,917.511,VALID,0,VALID,97.0232,VALID,0,VALID,18.3213,VALID,115,VALID,0,
2012-09-07, 03:19:04,VALID,917.492,VALID,0,VALID,97.0232,VALID,0,VALID,18.3213,VALID,115,VALID,0,
2012-09-07, 03:20:04,VALID,917.497,VALID,0,VALID,97.0461,VALID,0,VALID,18.3018,VALID,115,VALID,0,
2012-09-07, 03:21:04,VALID,917.502,VALID,0,VALID,97.069,VALID,0,VALID,18.3422,VALID,115,VALID,0,
2012-09-07, 03:22:04,VALID,917.464,VALID,0,VALID,97.069,VALID,0,VALID,18.2628,VALID,115,VALID,0,
2012-09-07, 03:23:04,VALID,917.465,VALID,0,VALID,96.9927,VALID,0,VALID,18.2238,VALID,115,VALID,0,
2012-09-07, 03:24:04,VALID,917.466,VALID,0,VALID,97.0385,VALID,0,VALID,18.2252,VALID,115,VALID,0,
2012-09-07, 03:25:04,VALID,917.473,VALID,0,VALID,97.069,VALID,0,VALID,18.2238,VALID,115,VALID,0,
2012-09-07, 03:26:04,VALID,917.48,VALID,0,VALID,97.0918,VALID,0,VALID,18.2433,VALID,115,VALID,0,
2012-09-07, 03:27:04,VALID,917.466,VALID,0,VALID,97.0918,VALID,0,VALID,18.2628,VALID,115,VALID,0,
2012-09-07, 03:28:04,VALID,917.46,VALID,0,VALID,97.1223,VALID,0,VALID,18.2628,VALID,115,VALID,0,
2012-09-07, 03:29:04,VALID,917.446,VALID,0,VALID,97.1299,VALID,0,VALID,18.2628,VALID,115,VALID,0,
2012-09-07, 03:30:04,VALID,917.442,VALID,0,VALID,97.1223,VALID,0,VALID,18.2628,VALID,115,VALID,0,
2012-09-07, 03:31:04,VALID,917.465,VALID,0,VALID,97.1376,VALID,0,VALID,18.3032,VALID,115,VALID,0,
2012-09-07, 03:32:04,VALID,917.47,VALID,0,VALID,97.1528,VALID,0,VALID,18.3227,VALID,115,VALID,0,
2012-09-07, 03:33:04,VALID,917.49,VALID,0,VALID,97.1452,VALID,0,VALID,18.3213,VALID,115,VALID,0,
2012-09-07, 03:34:04,VALID,917.506,VALID,0,VALID,97.1376,VALID,0,VALID,18.3617,VALID,115,VALID,0,
2012-09-07, 03:35:04,VALID,917.516,VALID,0,VALID,97.1452,VALID,0,VALID,18.3798,VALID,115,VALID,0,
2012-09-07, 03:36:04,VALID,917.531,VALID,0,VALID,97.1299,VALID,0,VALID,18.4397,VALID,115,VALID,0,
2012-09-07, 03:37:04,VALID,917.532,VALID,0,VALID,97.1071,VALID,0,VALID,18.4188,VALID,115,VALID,0,
2012-09-07, 03:38:04,VALID,917.548,VALID,0,VALID,97.069,VALID,0,VALID,18.4188,VALID,115,VALID,0,
2012-09-07, 03:39:04,VALID,917.539,VALID,0,VALID,97.0613,VALID,0,VALID,18.4188,VALID,115,VALID,0,
2012-09-07, 03:40:04,VALID,917.53,VALID,0,VALID,97.008,VALID,0,VALID,18.4397,VALID,115,VALID,0,
2012-09-07, 03:41:04,VALID,917.516,VALID,0,VALID,96.9546,VALID,0,VALID,18.4383,VALID,115,VALID,0,
2012-09-07, 03:42:04,VALID,917.505,VALID,0,VALID,96.9394,VALID,0,VALID,18.4397,VALID,115,VALID,0,
2012-09-07, 03:43:04,VALID,917.492,VALID,0,VALID,96.9317,VALID,0,VALID,18.4397,VALID,115,VALID,0,
2012-09-07, 03:44:04,VALID,917.461,VALID,0,VALID,96.9317,VALID,0,VALID,18.4397,VALID,115,VALID,0,
2012-09-07, 03:45:04,VALID,917.444,VALID,0,VALID,96.8936,VALID,0,VALID,18.4202,VALID,115,VALID,0,
2012-09-07, 03:46:04,VALID,917.461,VALID,0,VALID,96.8707,VALID,0,VALID,18.3993,VALID,115,VALID,0,
2012-09-07, 03:47:04,VALID,917.452,VALID,0,VALID,96.8326,VALID,0,VALID,18.3603,VALID,115,VALID,0,
2012-09-07, 03:48:04,VALID,917.499,VALID,0,VALID,96.825,VALID,0,VALID,18.3812,VALID,115,VALID,0,
2012-09-07, 03:49:04,VALID,917.507,VALID,0,VALID,96.8555,VALID,0,VALID,18.3408,VALID,115,VALID,0,
2012-09-07, 03:50:04,VALID,917.504,VALID,0,VALID,96.825,VALID,0,VALID,18.3408,VALID,115,VALID,0,
2012-09-07, 03:51:04,VALID,917.502,VALID,0,VALID,96.8098,VALID,0,VALID,18.3213,VALID,115,VALID,0,
2012-09-07, 03:52:04,VALID,917.503,VALID,0,VALID,96.8021,VALID,0,VALID,18.3018,VALID,115,VALID,0,
2012-09-07, 03:53:04,VALID,917.483,VALID,0,VALID,96.7945,VALID,0,VALID,18.2823,VALID,115,VALID,0,
2012-09-07, 03:54:04,VALID,917.486,VALID,0,VALID,96.8403,VALID,0,VALID,18.3032,VALID,115,VALID,0,
2012-09-07, 03:55:04,VALID,917.486,VALID,0,VALID,96.8707,VALID,0,VALID,18.2823,VALID,115,VALID,0,
2012-09-07, 03:56:04,VALID,917.467,VALID,0,VALID,96.9012,VALID,0,VALID,18.3213,VALID,115,VALID,0,
2012-09-07, 03:57:04,VALID,917.444,VALID,0,VALID,96.8479,VALID,0,VALID,18.3213,VALID,115,VALID,0,
2012-09-07, 03:58:04,VALID,917.415,VALID,0,VALID,96.8479,VALID,0,VALID,18.3213,VALID,115,VALID,0,